sat.trackr.live / text

‹ back to catalog

STARLINK-33834

NORAD 63586 · 2025-076T

PAYLOAD ACTIVE UNKNOWN

§ Identity

Operator
Country
US
Launch date
2025-04-14
Launch site
AFETR
Launch vehicle
Mass (kg)
RCS (m²)

Purposes: comms

External: N2YO · Heavens-Above · Gunter

§ Orbital elements

Epoch: 2026-09-20T10:24:51.805152Z

Period
94.27 min
Inclination
43.0058°
Eccentricity
0.0002239
Mean motion
15.27590716 rev/d
Perigee alt
481.5 km
Apogee alt
484.6 km
Semi-major
6,861.2 km
B*
5.0981e-4
RAAN
301.9119°
Arg perigee
286.4418°
Mean anomaly
73.6188°
Rev number
8,161

§ Raw data

STARLINK-338341 63586U 25076T   26263.43393293  .00013798  00000+0  50981-3 0  99962 63586  43.0058 301.9119 0002239 286.4418  73.6188 15.27590716 81615

JSON: /api/v1/satellites/63586 · /tle

For live sub-satellite position, see the globe view (requires WebGL).

§ Visibility from observer

Set your observer location to see the next 7 days of passes ≥ 10°. The values pass through the URL so the page stays shareable.

No JS? Fill the form by hand. The geolocation button needs JavaScript.